CES1106 ZLDH-ZLXY

Flight info

Callsign CES1106
Flight time 1h 47m
Altitude 34100
Route VIKUP W191 DNC W565 BIGUX W214 HO
Aircraft B738/M-SDE2E3FGHIRWXY/LB1

Departure

Time 2026-05-05 12:14
Airport Dunhuang Mogao International Airport (ZLDH)

Arrival

Time 2026-05-05 14:02
Airport Xi'an Xianyang International Airport (ZLXY)
Time Latitude Longitude Altitude Speed Heading
2026-05-05 11:52 40.16487 94.80492 3685 ft 0 kts 354°
2026-05-05 12:04 40.16465 94.80495 3691 ft 4 kts 354°
2026-05-05 12:04 40.16438 94.80498 3696 ft 4 kts 354°
2026-05-05 12:04 40.16413 94.80502 3696 ft 2 kts 354°
2026-05-05 12:04 40.16394 94.80508 3693 ft 4 kts 295°
2026-05-05 12:05 40.16391 94.80538 3694 ft 3 kts 262°
2026-05-05 12:05 40.16397 94.80572 3697 ft 4 kts 261°
2026-05-05 12:05 40.16398 94.80581 3693 ft 1 kts 264°
2026-05-05 12:07 40.16398 94.80580 3693 ft 1 kts 264°
2026-05-05 12:07 40.16397 94.80569 3697 ft 2 kts 261°
2026-05-05 12:08 40.16393 94.80538 3693 ft 5 kts 261°
2026-05-05 12:08 40.16387 94.80482 3693 ft 7 kts 263°
2026-05-05 12:08 40.16382 94.80418 3693 ft 7 kts 264°
2026-05-05 12:08 40.16377 94.80355 3693 ft 7 kts 264°
2026-05-05 12:09 40.16373 94.80293 3694 ft 7 kts 265°
2026-05-05 12:09 40.16349 94.80244 3692 ft 7 kts 205°
2026-05-05 12:09 40.16304 94.80244 3693 ft 7 kts 174°
2026-05-05 12:09 40.16256 94.80250 3692 ft 8 kts 173°
2026-05-05 12:10 40.16194 94.80259 3690 ft 11 kts 173°
2026-05-05 12:10 40.16118 94.80223 3686 ft 13 kts 242°
2026-05-05 12:10 40.16104 94.80108 3685 ft 13 kts 264°
2026-05-05 12:10 40.16095 94.79984 3685 ft 16 kts 263°
2026-05-05 12:11 40.16082 94.79815 3684 ft 22 kts 264°
2026-05-05 12:11 40.16066 94.79611 3684 ft 22 kts 265°
2026-05-05 12:11 40.16082 94.79442 3685 ft 14 kts 292°
2026-05-05 12:11 40.16099 94.79377 3690 ft 5 kts 279°
2026-05-05 12:12 40.16099 94.79347 3687 ft 2 kts 266°
2026-05-05 12:12 40.16097 94.79318 3691 ft 6 kts 265°
2026-05-05 12:12 40.16058 94.79282 3685 ft 10 kts 163°
2026-05-05 12:12 40.16043 94.79334 3685 ft 0 kts 83°
2026-05-05 12:13 40.16043 94.79335 3685 ft 0 kts 83°
2026-05-05 12:14 40.16044 94.79344 3684 ft 10 kts 83°
2026-05-05 12:14 40.16081 94.79769 3684 ft 84 kts 82°
2026-05-05 12:14 40.16165 94.80817 3691 ft 146 kts 82°
2026-05-05 12:15 40.16300 94.82349 3791 ft 188 kts 75°
2026-05-05 12:15 40.16475 94.84076 4522 ft 194 kts 78°
2026-05-05 12:15 40.16597 94.85802 5456 ft 191 kts 78°
2026-05-05 12:15 40.16725 94.87608 5871 ft 212 kts 78°
2026-05-05 12:16 40.16871 94.89628 6063 ft 235 kts 79°
2026-05-05 12:16 40.17031 94.91854 6326 ft 254 kts 80°
2026-05-05 12:16 40.17196 94.94183 6715 ft 270 kts 79°
2026-05-05 12:16 40.17376 94.96687 7289 ft 279 kts 80°
2026-05-05 12:17 40.17559 94.99241 8015 ft 286 kts 81°
2026-05-05 12:17 40.17748 95.01849 8783 ft 290 kts 83°
2026-05-05 12:17 40.17940 95.04498 9580 ft 295 kts 82°
2026-05-05 12:17 40.17882 95.07203 10264 ft 304 kts 103°
2026-05-05 12:18 40.16976 95.09786 10558 ft 328 kts 129°
2026-05-05 12:18 40.15204 95.11791 10765 ft 350 kts 149°
2026-05-05 12:18 40.12915 95.13131 10924 ft 373 kts 164°
2026-05-05 12:18 40.10280 95.13656 11053 ft 394 kts 174°
2026-05-05 12:19 40.07527 95.13957 11294 ft 409 kts 175°
2026-05-05 12:19 40.04699 95.14245 12043 ft 407 kts 175°
2026-05-05 12:19 40.01862 95.14569 12653 ft 411 kts 174°
2026-05-05 12:19 39.99020 95.14932 13420 ft 410 kts 174°
2026-05-05 12:20 39.96178 95.15345 13998 ft 413 kts 169°
2026-05-05 12:20 39.93482 95.16630 14490 ft 416 kts 147°
2026-05-05 12:20 39.91271 95.19058 15074 ft 418 kts 130°
2026-05-05 12:20 39.89639 95.22199 15477 ft 422 kts 115°
2026-05-05 12:21 39.88375 95.25605 15857 ft 422 kts 113°
2026-05-05 12:21 39.87123 95.29070 15895 ft 427 kts 114°
2026-05-05 12:21 39.85849 95.32586 16391 ft 430 kts 114°
2026-05-05 12:21 39.84557 95.36091 17058 ft 431 kts 114°
2026-05-05 12:22 39.83237 95.39615 17507 ft 436 kts 115°
2026-05-05 12:22 39.81893 95.43167 18032 ft 439 kts 115°
2026-05-05 12:22 39.80535 95.46740 18490 ft 443 kts 115°
2026-05-05 12:22 39.79163 95.50344 18923 ft 446 kts 115°
2026-05-05 12:23 39.77798 95.53926 19351 ft 450 kts 115°
2026-05-05 12:23 39.76408 95.57587 19756 ft 454 kts 115°
2026-05-05 12:23 39.75016 95.61282 20149 ft 457 kts 115°
2026-05-05 12:23 39.73613 95.65013 20522 ft 461 kts 115°
2026-05-05 12:24 39.72203 95.68763 20871 ft 465 kts 115°
2026-05-05 12:24 39.70776 95.72553 21279 ft 468 kts 115°
2026-05-05 12:24 39.69343 95.76348 21696 ft 469 kts 115°
2026-05-05 12:24 39.67900 95.80166 22050 ft 472 kts 116°
2026-05-05 12:25 39.66447 95.84001 22362 ft 476 kts 116°
2026-05-05 12:25 39.65000 95.87815 22696 ft 477 kts 115°
2026-05-05 12:25 39.63538 95.91667 23260 ft 475 kts 115°
2026-05-05 12:25 39.62077 95.95508 23638 ft 476 kts 116°
2026-05-05 12:26 39.60605 95.99376 23909 ft 479 kts 116°
2026-05-05 12:26 39.59124 96.03262 24189 ft 481 kts 116°
2026-05-05 12:26 39.57639 96.07156 24431 ft 484 kts 117°
2026-05-05 12:26 39.56144 96.11064 24814 ft 483 kts 117°
2026-05-05 12:27 39.54626 96.14968 25028 ft 487 kts 118°
2026-05-05 12:27 39.53076 96.18889 25203 ft 490 kts 118°
2026-05-05 12:27 39.51530 96.22775 25398 ft 493 kts 118°
2026-05-05 12:27 39.49953 96.26734 25600 ft 497 kts 118°
2026-05-05 12:28 39.48368 96.30719 25769 ft 500 kts 118°
2026-05-05 12:28 39.46774 96.34726 25967 ft 501 kts 118°
2026-05-05 12:28 39.45178 96.38742 26223 ft 502 kts 118°
2026-05-05 12:28 39.43584 96.42752 26567 ft 500 kts 118°
2026-05-05 12:29 39.41993 96.46748 26890 ft 500 kts 119°
2026-05-05 12:29 39.40403 96.50741 27178 ft 500 kts 119°
2026-05-05 12:29 39.38806 96.54739 27468 ft 501 kts 120°
2026-05-05 12:29 39.37230 96.58680 27773 ft 501 kts 120°
2026-05-05 12:30 39.35628 96.62680 28098 ft 501 kts 120°
2026-05-05 12:30 39.34028 96.66674 28396 ft 501 kts 120°
2026-05-05 12:30 39.32427 96.70664 28680 ft 501 kts 120°
2026-05-05 12:30 39.30764 96.74612 28987 ft 499 kts 126°
2026-05-05 12:31 39.28756 96.78242 29277 ft 496 kts 131°
2026-05-05 12:31 39.26623 96.81739 29621 ft 495 kts 132°
2026-05-05 12:31 39.24460 96.85197 29956 ft 495 kts 133°
2026-05-05 12:31 39.22292 96.88655 30147 ft 496 kts 133°
2026-05-05 12:32 39.20148 96.92077 30289 ft 498 kts 133°
2026-05-05 12:32 39.17975 96.95545 30565 ft 496 kts 133°
2026-05-05 12:32 39.15822 96.98992 30962 ft 491 kts 133°
2026-05-05 12:32 39.13687 97.02425 31255 ft 492 kts 132°
2026-05-05 12:33 39.11898 97.06234 31349 ft 507 kts 115°
2026-05-05 12:33 39.11011 97.10658 31590 ft 514 kts 101°
2026-05-05 12:33 39.10607 97.15228 32031 ft 512 kts 97°
2026-05-05 12:33 39.10330 97.19792 32399 ft 511 kts 96°
2026-05-05 12:34 39.10096 97.24356 32682 ft 511 kts 96°
2026-05-05 12:34 39.09825 97.28917 32931 ft 510 kts 102°
2026-05-05 12:34 39.08795 97.33148 33186 ft 498 kts 122°
2026-05-05 12:34 39.07028 97.36930 33562 ft 490 kts 129°
2026-05-05 12:35 39.05111 97.40540 33941 ft 488 kts 129°
2026-05-05 12:35 39.03260 97.44205 34196 ft 489 kts 127°
2026-05-05 12:35 38.99887 97.51908 34196 ft 497 kts 122°
2026-05-05 12:36 38.96764 97.59788 34177 ft 492 kts 122°
2026-05-05 12:36 38.93641 97.67551 34192 ft 493 kts 122°
2026-05-05 12:37 38.90467 97.75354 34193 ft 493 kts 122°
2026-05-05 12:37 38.87277 97.83170 34191 ft 495 kts 123°
2026-05-05 12:38 38.84076 97.91002 34177 ft 496 kts 122°
2026-05-05 12:38 38.80864 97.98853 34181 ft 498 kts 123°
2026-05-05 12:39 38.77649 98.06685 34179 ft 502 kts 123°
2026-05-05 12:39 38.74381 98.14628 34175 ft 505 kts 123°
2026-05-05 12:40 38.71091 98.22601 34186 ft 507 kts 123°
2026-05-05 12:40 38.67788 98.30593 34179 ft 508 kts 123°
2026-05-05 12:41 38.64505 98.38515 34169 ft 507 kts 122°
2026-05-05 12:41 38.61191 98.46486 34208 ft 509 kts 122°
2026-05-05 12:42 38.59530 98.50476 34441 ft 509 kts 122°
2026-05-05 12:42 38.57869 98.54461 34755 ft 505 kts 123°
2026-05-05 12:42 38.56222 98.58407 35098 ft 502 kts 123°
2026-05-05 12:42 38.54576 98.62347 35160 ft 504 kts 123°
2026-05-05 12:43 38.51262 98.70257 35177 ft 504 kts 123°
2026-05-05 12:43 38.47982 98.78069 35171 ft 502 kts 123°
2026-05-05 12:44 38.44687 98.85900 35168 ft 500 kts 123°
2026-05-05 12:44 38.41392 98.93705 35170 ft 500 kts 123°
2026-05-05 12:45 38.38093 99.01503 35153 ft 500 kts 123°
2026-05-05 12:45 38.34808 99.09247 35135 ft 500 kts 123°
2026-05-05 12:46 38.31491 99.17050 35139 ft 502 kts 123°
2026-05-05 12:46 38.28154 99.24878 35120 ft 504 kts 123°
2026-05-05 12:47 38.24805 99.32719 35138 ft 505 kts 123°
2026-05-05 12:47 38.21435 99.40585 35124 ft 507 kts 123°
2026-05-05 12:48 38.18079 99.48402 35115 ft 508 kts 123°
2026-05-05 12:48 38.14686 99.56286 35107 ft 509 kts 123°
2026-05-05 12:49 38.11286 99.64168 35107 ft 509 kts 123°
2026-05-05 12:49 38.07882 99.72038 35100 ft 508 kts 123°
2026-05-05 12:50 38.04499 99.79840 35090 ft 508 kts 124°
2026-05-05 12:50 38.01093 99.87678 35071 ft 507 kts 124°
2026-05-05 12:51 37.97690 99.95489 35080 ft 505 kts 124°
2026-05-05 12:51 37.94291 100.03269 35067 ft 504 kts 124°
2026-05-05 12:52 37.90918 100.10972 35072 ft 503 kts 124°
2026-05-05 12:52 37.87523 100.18707 35061 ft 502 kts 124°
2026-05-05 12:53 37.84114 100.26452 35072 ft 507 kts 123°
2026-05-05 12:53 37.80647 100.34307 35059 ft 515 kts 123°
2026-05-05 12:54 37.75398 100.46176 35060 ft 519 kts 123°
2026-05-05 12:55 37.71866 100.54143 35053 ft 520 kts 123°
2026-05-05 12:55 37.68328 100.62099 35046 ft 519 kts 123°
2026-05-05 12:56 37.64799 100.70046 35059 ft 520 kts 122°
2026-05-05 12:56 37.61392 100.78098 35057 ft 520 kts 121°
2026-05-05 12:57 37.58057 100.86119 35032 ft 520 kts 121°
2026-05-05 12:57 37.54675 100.94181 35007 ft 520 kts 121°
2026-05-05 12:58 37.51302 101.02194 35059 ft 517 kts 122°
2026-05-05 12:58 37.47898 101.10183 35030 ft 518 kts 122°
2026-05-05 12:59 37.44516 101.18114 35006 ft 518 kts 122°
2026-05-05 12:59 37.41108 101.26109 34986 ft 518 kts 122°
2026-05-05 13:00 37.35994 101.38070 34996 ft 518 kts 121°
2026-05-05 13:01 37.29322 101.54088 34981 ft 522 kts 112°
2026-05-05 13:01 37.28554 101.58544 35029 ft 523 kts 100°
2026-05-05 13:01 37.27736 101.62993 34941 ft 523 kts 110°
2026-05-05 13:02 37.25447 101.71625 34974 ft 522 kts 109°
2026-05-05 13:02 37.23385 101.80383 35006 ft 524 kts 107°
2026-05-05 13:03 37.21404 101.89137 35006 ft 526 kts 107°
2026-05-05 13:03 37.19380 101.97956 34988 ft 526 kts 108°
2026-05-05 13:04 37.17333 102.06763 35016 ft 527 kts 108°
2026-05-05 13:04 37.15269 102.15575 35005 ft 527 kts 108°
2026-05-05 13:05 37.13214 102.24323 35050 ft 527 kts 108°
2026-05-05 13:05 37.10837 102.33011 34988 ft 524 kts 118°
2026-05-05 13:06 37.07092 102.40754 35034 ft 519 kts 126°
2026-05-05 13:06 37.03182 102.48339 35031 ft 518 kts 126°
2026-05-05 13:07 36.99359 102.55892 35041 ft 516 kts 125°
2026-05-05 13:07 36.95548 102.63499 35049 ft 517 kts 125°
2026-05-05 13:08 36.91730 102.71114 35020 ft 517 kts 125°
2026-05-05 13:08 36.87900 102.78723 35020 ft 518 kts 125°
2026-05-05 13:09 36.84083 102.86287 35020 ft 519 kts 125°
2026-05-05 13:09 36.80353 102.94012 34975 ft 522 kts 120°
2026-05-05 13:10 36.77188 103.02184 34976 ft 524 kts 117°
2026-05-05 13:10 36.74111 103.10433 34948 ft 525 kts 117°
2026-05-05 13:11 36.70985 103.18594 34959 ft 525 kts 118°
2026-05-05 13:11 36.67787 103.26790 34926 ft 526 kts 118°
2026-05-05 13:12 36.64577 103.34981 34934 ft 527 kts 118°
2026-05-05 13:12 36.61363 103.43179 34921 ft 527 kts 118°
2026-05-05 13:13 36.58143 103.51379 34915 ft 527 kts 117°
2026-05-05 13:13 36.54946 103.59502 34950 ft 526 kts 118°
2026-05-05 13:14 36.51516 103.67505 34961 ft 523 kts 122°
2026-05-05 13:14 36.47810 103.75281 34950 ft 523 kts 123°
2026-05-05 13:15 36.44104 103.83050 34931 ft 522 kts 122°
2026-05-05 13:15 36.40462 103.90790 34895 ft 523 kts 122°
2026-05-05 13:16 36.36792 103.98605 34883 ft 524 kts 122°
2026-05-05 13:16 36.33111 104.06411 34885 ft 525 kts 122°
2026-05-05 13:17 36.29420 104.14240 34869 ft 527 kts 122°
2026-05-05 13:17 36.25745 104.22030 34869 ft 527 kts 122°
2026-05-05 13:18 36.22051 104.29847 34877 ft 525 kts 122°
2026-05-05 13:18 36.18353 104.37644 34885 ft 524 kts 122°
2026-05-05 13:19 36.14649 104.45411 34895 ft 524 kts 122°
2026-05-05 13:19 36.10965 104.53116 34896 ft 524 kts 122°
2026-05-05 13:20 36.07249 104.60873 34880 ft 525 kts 122°
2026-05-05 13:20 36.03524 104.68640 34888 ft 526 kts 122°
2026-05-05 13:21 35.99788 104.76409 34897 ft 527 kts 122°
2026-05-05 13:21 35.96063 104.84139 34894 ft 528 kts 122°
2026-05-05 13:22 35.92300 104.91932 34893 ft 529 kts 122°
2026-05-05 13:22 35.88533 104.99718 34886 ft 529 kts 122°
2026-05-05 13:23 35.84770 105.07512 34883 ft 529 kts 122°
2026-05-05 13:23 35.81004 105.15307 34885 ft 530 kts 122°
2026-05-05 13:24 35.77254 105.23052 34880 ft 530 kts 122°
2026-05-05 13:24 35.73476 105.30834 34880 ft 529 kts 122°
2026-05-05 13:25 35.69692 105.38608 34888 ft 529 kts 123°
2026-05-05 13:25 35.65903 105.46376 34890 ft 529 kts 122°
2026-05-05 13:26 35.62111 105.54135 34873 ft 530 kts 122°
2026-05-05 13:26 35.58336 105.61843 34880 ft 530 kts 123°
2026-05-05 13:27 35.54589 105.69632 34874 ft 530 kts 117°
2026-05-05 13:27 35.52145 105.78154 34872 ft 531 kts 100°
2026-05-05 13:28 35.50878 105.87073 34864 ft 530 kts 98°
2026-05-05 13:28 35.49642 105.95931 34867 ft 530 kts 99°
2026-05-05 13:29 35.48327 106.04852 34612 ft 535 kts 99°
2026-05-05 13:29 35.47647 106.09344 34384 ft 535 kts 99°
2026-05-05 13:29 35.46962 106.13830 34152 ft 535 kts 99°
2026-05-05 13:30 35.46276 106.18312 33929 ft 535 kts 99°
2026-05-05 13:30 35.45588 106.22798 33680 ft 536 kts 99°
2026-05-05 13:30 35.44900 106.27287 33417 ft 536 kts 100°
2026-05-05 13:30 35.44208 106.31778 33162 ft 535 kts 99°
2026-05-05 13:31 35.43518 106.36262 32914 ft 536 kts 100°
2026-05-05 13:31 35.42837 106.40690 32671 ft 536 kts 100°
2026-05-05 13:31 35.42143 106.45182 32420 ft 536 kts 100°
2026-05-05 13:31 35.41448 106.49671 32152 ft 536 kts 100°
2026-05-05 13:32 35.40751 106.54159 31902 ft 536 kts 101°
2026-05-05 13:32 35.40052 106.58648 31609 ft 537 kts 101°
2026-05-05 13:32 35.39348 106.63152 31231 ft 539 kts 101°
2026-05-05 13:32 35.38641 106.67663 30875 ft 539 kts 101°
2026-05-05 13:33 35.37933 106.72172 30524 ft 538 kts 101°
2026-05-05 13:33 35.37225 106.76674 30167 ft 538 kts 102°
2026-05-05 13:33 35.36526 106.81105 29820 ft 536 kts 102°
2026-05-05 13:33 35.35818 106.85582 29419 ft 535 kts 102°
2026-05-05 13:34 35.35110 106.90051 29018 ft 533 kts 102°
2026-05-05 13:34 35.34403 106.94503 28622 ft 532 kts 102°
2026-05-05 13:34 35.33696 106.98940 28231 ft 529 kts 102°
2026-05-05 13:34 35.32999 107.03320 27557 ft 521 kts 102°
2026-05-05 13:35 35.32306 107.07667 26684 ft 520 kts 102°
2026-05-05 13:35 35.31612 107.12011 25668 ft 521 kts 102°
2026-05-05 13:35 35.30926 107.16301 24753 ft 520 kts 102°
2026-05-05 13:35 35.30232 107.20622 24053 ft 513 kts 102°
2026-05-05 13:36 35.29550 107.24870 23455 ft 504 kts 102°
2026-05-05 13:36 35.28876 107.29044 22742 ft 496 kts 102°
2026-05-05 13:36 35.28211 107.33163 22002 ft 490 kts 102°
2026-05-05 13:36 35.27554 107.37221 21284 ft 483 kts 102°
2026-05-05 13:37 35.26905 107.41223 20564 ft 477 kts 102°
2026-05-05 13:37 35.26262 107.45181 19836 ft 471 kts 102°
2026-05-05 13:37 35.25625 107.49084 19168 ft 465 kts 102°
2026-05-05 13:37 35.25003 107.52892 18525 ft 459 kts 102°
2026-05-05 13:38 35.24373 107.56694 17881 ft 453 kts 102°
2026-05-05 13:38 35.23746 107.60444 17164 ft 447 kts 102°
2026-05-05 13:38 35.23125 107.64145 16480 ft 441 kts 102°
2026-05-05 13:38 35.22512 107.67800 15805 ft 436 kts 102°
2026-05-05 13:39 35.21907 107.71406 15146 ft 430 kts 102°
2026-05-05 13:39 35.21274 107.74951 14507 ft 424 kts 107°
2026-05-05 13:39 35.20023 107.78166 13827 ft 417 kts 127°
2026-05-05 13:39 35.18139 107.80818 13176 ft 410 kts 134°
2026-05-05 13:40 35.16220 107.83310 12472 ft 406 kts 134°
2026-05-05 13:40 35.14290 107.85811 11768 ft 403 kts 134°
2026-05-05 13:40 35.12382 107.88300 11084 ft 399 kts 134°
2026-05-05 13:40 35.10500 107.90771 10416 ft 396 kts 134°
2026-05-05 13:41 35.08640 107.93227 9784 ft 392 kts 134°
2026-05-05 13:41 35.06797 107.95666 9111 ft 388 kts 134°
2026-05-05 13:41 35.04974 107.98080 8793 ft 387 kts 134°
2026-05-05 13:41 35.03173 108.00465 8685 ft 382 kts 134°
2026-05-05 13:42 35.01441 108.02760 8633 ft 352 kts 134°
2026-05-05 13:42 34.99852 108.04867 8608 ft 323 kts 134°
2026-05-05 13:42 34.98393 108.06801 8634 ft 298 kts 134°
2026-05-05 13:42 34.97021 108.08614 8629 ft 286 kts 135°
2026-05-05 13:43 34.95674 108.10386 8638 ft 285 kts 135°
2026-05-05 13:43 34.94319 108.12170 8652 ft 287 kts 135°
2026-05-05 13:43 34.92959 108.13962 8647 ft 289 kts 135°
2026-05-05 13:43 34.91595 108.15757 8651 ft 288 kts 135°
2026-05-05 13:44 34.90247 108.17534 8664 ft 292 kts 135°
2026-05-05 13:44 34.88861 108.19356 8651 ft 292 kts 135°
2026-05-05 13:44 34.87493 108.21158 8646 ft 288 kts 135°
2026-05-05 13:44 34.86136 108.22940 8644 ft 286 kts 135°
2026-05-05 13:45 34.84782 108.24718 8638 ft 287 kts 135°
2026-05-05 13:45 34.83425 108.26498 8648 ft 286 kts 135°
2026-05-05 13:45 34.82068 108.28276 8643 ft 287 kts 135°
2026-05-05 13:45 34.80708 108.30058 8646 ft 288 kts 135°
2026-05-05 13:46 34.79345 108.31843 8641 ft 288 kts 135°
2026-05-05 13:46 34.78000 108.33604 8647 ft 289 kts 135°
2026-05-05 13:46 34.76630 108.35396 8636 ft 289 kts 135°
2026-05-05 13:46 34.75262 108.37187 8633 ft 289 kts 135°
2026-05-05 13:47 34.73894 108.38975 8645 ft 288 kts 135°
2026-05-05 13:47 34.72529 108.40760 8636 ft 289 kts 135°
2026-05-05 13:47 34.71161 108.42548 8631 ft 289 kts 135°
2026-05-05 13:47 34.69792 108.44337 8615 ft 289 kts 135°
2026-05-05 13:48 34.68425 108.46120 8616 ft 288 kts 135°
2026-05-05 13:48 34.67060 108.47902 8622 ft 287 kts 135°
2026-05-05 13:48 34.65723 108.49646 8534 ft 285 kts 135°
2026-05-05 13:48 34.64373 108.51382 8259 ft 282 kts 139°
2026-05-05 13:49 34.62681 108.52489 7867 ft 278 kts 172°
2026-05-05 13:49 34.60802 108.52339 7759 ft 267 kts 192°
2026-05-05 13:49 34.59021 108.51802 7577 ft 262 kts 195°
2026-05-05 13:49 34.57277 108.51215 7385 ft 256 kts 195°
2026-05-05 13:50 34.55606 108.50645 7271 ft 243 kts 195°
2026-05-05 13:50 34.54026 108.50117 7169 ft 229 kts 195°
2026-05-05 13:50 34.52548 108.49629 7008 ft 219 kts 195°
2026-05-05 13:50 34.51083 108.49150 6672 ft 219 kts 195°
2026-05-05 13:51 34.49613 108.48672 6338 ft 218 kts 195°
2026-05-05 13:51 34.48156 108.48201 6029 ft 216 kts 194°
2026-05-05 13:51 34.46706 108.47733 5683 ft 216 kts 194°
2026-05-05 13:51 34.45255 108.47266 5325 ft 216 kts 194°
2026-05-05 13:52 34.43806 108.46800 5001 ft 215 kts 194°
2026-05-05 13:52 34.42358 108.46336 4947 ft 216 kts 194°
2026-05-05 13:52 34.40903 108.45870 4931 ft 216 kts 194°
2026-05-05 13:52 34.39470 108.45412 4915 ft 216 kts 194°
2026-05-05 13:53 34.38021 108.44948 4905 ft 216 kts 194°
2026-05-05 13:53 34.36570 108.44484 4893 ft 216 kts 194°
2026-05-05 13:53 34.35118 108.44151 4852 ft 209 kts 179°
2026-05-05 13:53 34.33718 108.44294 4764 ft 196 kts 175°
2026-05-05 13:54 34.32401 108.44410 4662 ft 184 kts 178°
2026-05-05 13:54 34.31159 108.44508 4565 ft 173 kts 178°
2026-05-05 13:54 34.29985 108.44599 4388 ft 167 kts 177°
2026-05-05 13:54 34.28829 108.44687 4107 ft 166 kts 177°
2026-05-05 13:55 34.27762 108.45119 3922 ft 172 kts 135°
2026-05-05 13:55 34.27033 108.46273 3905 ft 175 kts 122°
2026-05-05 13:55 34.26683 108.47669 3901 ft 175 kts 96°
2026-05-05 13:55 34.26819 108.49125 3900 ft 177 kts 75°
2026-05-05 13:56 34.27489 108.50380 3920 ft 180 kts 51°
2026-05-05 13:56 34.28291 108.51558 3907 ft 183 kts 52°
2026-05-05 13:56 34.29110 108.52748 3910 ft 185 kts 52°
2026-05-05 13:56 34.29945 108.53932 3903 ft 184 kts 51°
2026-05-05 13:57 34.30774 108.55091 3885 ft 181 kts 51°
2026-05-05 13:57 34.31582 108.56209 3885 ft 178 kts 51°
2026-05-05 13:57 34.32392 108.57326 3890 ft 176 kts 51°
2026-05-05 13:57 34.33196 108.58430 3879 ft 174 kts 51°
2026-05-05 13:58 34.34005 108.59502 3884 ft 171 kts 50°
2026-05-05 13:58 34.34802 108.60576 3874 ft 171 kts 51°
2026-05-05 13:58 34.35568 108.61625 3904 ft 163 kts 51°
2026-05-05 13:58 34.36330 108.62677 3733 ft 167 kts 52°
2026-05-05 13:59 34.37811 108.64723 3330 ft 158 kts 51°
2026-05-05 13:59 34.38528 108.65713 3135 ft 156 kts 51°
2026-05-05 14:00 34.39958 108.67689 2761 ft 154 kts 50°
2026-05-05 14:00 34.40426 108.68336 2642 ft 154 kts 48°
2026-05-05 14:00 34.41384 108.69658 2373 ft 157 kts 49°
2026-05-05 14:00 34.42103 108.70651 2169 ft 157 kts 47°
2026-05-05 14:01 34.42823 108.71643 1961 ft 157 kts 48°
2026-05-05 14:01 34.43545 108.72639 1729 ft 157 kts 49°
2026-05-05 14:01 34.44245 108.73616 1531 ft 154 kts 47°
2026-05-05 14:01 34.44895 108.74508 1512 ft 104 kts 49°
2026-05-05 14:02 34.45182 108.74929 1510 ft 36 kts 68°
2026-05-05 14:02 34.45238 108.75180 1520 ft 0 kts 75°
2026-05-05 14:02 34.45239 108.75183 1520 ft 2 kts 75°
2026-05-05 14:02 34.45248 108.75226 1520 ft 8 kts 75°
2026-05-05 14:03 34.45266 108.75296 1520 ft 9 kts 68°
2026-05-05 14:03 34.45285 108.75370 1520 ft 9 kts 88°
2026-05-05 14:03 34.45246 108.75455 1519 ft 15 kts 141°
2026-05-05 14:03 34.45148 108.75555 1520 ft 21 kts 137°
2026-05-05 14:04 34.45026 108.75689 1519 ft 25 kts 138°
2026-05-05 14:04 34.44917 108.75785 1520 ft 18 kts 170°
2026-05-05 14:04 34.44813 108.75756 1520 ft 12 kts 167°
2026-05-05 14:04 34.44731 108.75738 1520 ft 15 kts 225°
2026-05-05 14:05 34.44656 108.75635 1520 ft 18 kts 229°
2026-05-05 14:05 34.44560 108.75602 1520 ft 17 kts 144°
2026-05-05 14:05 34.44481 108.75661 1520 ft 13 kts 188°
2026-05-05 14:05 34.44407 108.75575 1520 ft 17 kts 229°
2026-05-05 14:06 34.44344 108.75489 1520 ft 9 kts 218°
2026-05-05 14:06 34.44294 108.75498 1518 ft 7 kts 143°
2026-05-05 14:06 34.44284 108.75508 1520 ft 0 kts 140°
2026-05-05 14:06 34.44278 108.75514 1519 ft 2 kts 139°
2026-05-05 14:07 34.44275 108.75517 1519 ft 0 kts 138°